Regional Weather Roundup
Issued by NWS Mobile, AL

Home | Current Version | Previous Version | Text Only | Print | Product List | Glossary On
Versions: 1 2 3 4 5 6 7 8 9 10 11 12 13 14 15 16 17 18 19 20 21 22 23 24 25 26 27 28
000
ASUS44 KMOB 231112
RWRMOB
REGIONAL WEATHER ROUNDUP
NATIONAL WEATHER SERVICE MOBILE AL
600 AM CDT SAT JUL 23 2016

NOTE: "FAIR" INDICATES FEW OR NO CLOUDS BELOW 12,000 FEET WITH NO
      SIGNIFICANT WEATHER AND/OR OBSTRUCTIONS TO VISIBILITY.

  * THESE STATIONS ARE PART OF THE UNIVERSITY OF SOUTH ALABAMA
    MESONET AND ARE NOT UNDER NWS OR FAA QUALITY CONTROL.

ALZ061>064-231200-
COASTAL ALABAMA

CITY           SKY/WX    TMP DP  RH WIND       PRES   REMARKS
MOBILE REG APT PTCLDY    73  71  93 CALM      30.01R
BROOKLEY FIELD CLEAR     74  73  97 NW6       30.01R
USA CAMPUS*    NOT AVBL
DOG RIVER*     NOT AVBL


CITY           SKY/WX    TMP DP  RH WIND       PRES   REMARKS
MOUNT VERNON*  NOT AVBL
SARALAND*      NOT AVBL
BAY MINETTE*   NOT AVBL
LOXLEY*        NOT AVBL
ROBERTSDALE*   NOT AVBL
FAIRHOPE*      NOT AVBL
ELBERTA*       NOT AVBL
FOLEY*         NOT AVBL
GRAND BAY*     NOT AVBL
DAUPHIN ISLND* NOT AVBL
BON SCOUR NWR* NOT AVBL
GULF SHORES    PTCLDY    75  75 100 CALM      29.99S

$$

ALZ051>060-231200-
INTERIOR SOUTHWEST AND SOUTH CENTRAL ALABAMA

CITY           SKY/WX    TMP DP  RH WIND       PRES   REMARKS
GREENVILLE     CLOUDY    73  70  90 CALM      30.01S FOG
EVERGREEN      CLOUDY    72  71  97 CALM      30.02S FOG
CASTLEBERRY*   NOT AVBL
ATMORE*        NOT AVBL
DIXIE*         NOT AVBL
ANDALUSIA/OPP  CLEAR     76  72  87 CALM      30.02R FOG
ANDALUSIA*     NOT AVBL
FLORALA APT    CLEAR     72  70  93 CALM      30.03S
FLORALA*       NOT AVBL

$$

FLZ001>006-231200-
WESTERN FLORIDA PANHANDLE

CITY           SKY/WX    TMP DP  RH WIND       PRES   REMARKS
PENSACOLA      MOCLDY    79  75  87 SW6       30.00R
NAS PENSACOLA  MOCLDY    79  72  79 S8        29.99S
MILTON         CLEAR     72  72 100 CALM      30.01R
WHTNG S FIELD  CLEAR     77  75  93 E5        30.01


CITY           SKY/WX    TMP DP  RH WIND       PRES   REMARKS
WALNUT HILL*   NOT AVBL
JAY*           NOT AVBL
DUKE FIELD     CLEAR     72  71  96 CALM      30.00R
CRESTVIEW      CLEAR     71  70  96 CALM      30.02S
VALPARAISO     MOCLDY    75  72  92 N2        29.99S
DESTIN         PTCLDY    81  78  91 CALM      29.99S

$$

MSZ076-079-231200-
INTERIOR SOUTHEAST MISSISSIPPI

CITY           SKY/WX    TMP DP  RH WIND       PRES   REMARKS
LEAKESVILLE*   NOT AVBL
AGRICOLA*      NOT AVBL

$$

MARINE OBSERVATIONS

STATION/POSITION TIME  TEMP    WIND        PRES    WAVE
                       AIR SEA DIR/SP/G            HT/PER
                 (UTC) (F)     (DEG/KT/KT) (MB)    (FT/S)
PASCAGOULA       1000   78      10/  5/  5 1015.3S
PETIT BOIS ISLND 1000   81      30/  5/  6 1016.2R
GRAND BAY        0945   76      10/  3     1017.0S
KATRINA CUT      1000   82      10/  6     1015.9F
CEDAR POINT      1000   78      10/  4     1015.2S
E DAUPHIN ISLAND 1000   83     340/  5/  6 1015.1F
MIDDLE BAY LIGHT 1000   82     340/  9     1015.6R
USCG MOBILE BAY  1000   76 85  320/  1/  2 1016.1F
STATE DOCKS      1000   76 86              1015.5F
MEAHER PARK      1000   77      10/  2     1014.9F
WEEKS BAY        0900   76                   N/A
FORT MORGAN      1000   83      20/  5/  6 1014.8F
12 S ORANGE BCH  1050   76 88  210/  8/ 12 1016.4R   1/ 5
PENSACOLA BAY    1000   81 88  360/  1/  3 1015.4F
64 S DAUPHIN ISL 1000   79 88   50/ 12/ 14 1015.5R
67 S FORT MORGAN 1030   77        CALM     1015.6S

$$

SELECTED LOCATIONS ACROSS THE REGION

CITY           SKY/WX    TMP DP  RH WIND       PRES   REMARKS
NEW ORLEANS    PTCLDY    80  76  87 CALM      29.99S
GULFPORT       PTCLDY    74  71  91 N3        29.99S
PASCAGOULA AP  CLEAR     73  73 100 CALM      30.00R
PASCAGOULA*    NOT AVBL
HATTIESBURG    PTCLDY    71  70  96 CALM      30.02R
LAUREL         PTCLDY    70  66  88 CALM      30.03R
MERIDIAN       CLOUDY    73  71  93 CALM      30.02S FOG
JACKSON        MOCLDY    73  71  93 S5        30.01R
MONTGOMERY     CLOUDY    76  73  91 CALM      30.01R FOG
TROY           CLEAR     71  71 100 CALM      30.03R
KINSTON*       NOT AVBL
GENEVA*        NOT AVBL
ASHFORD*       NOT AVBL
DOTHAN         CLEAR     73  72  96 CALM      30.06R FOG
PANAMA CITY    PTCLDY    74  73  97 N3        30.00R

$$





USA.gov is the U.S. government's official web portal to all federal, state and local government web resources and services.